AF5AA Weather Reports


Display with metric or nautical units.
time (UTC)temp
F
wind
direction
speed
MPH
gust
MPH
rain 1hr
in
rain 24hr
in
rain mn
in
humidity
%
barometer
mb
20260903001207 79 63 1.0 1.0 0.00 0.00 0.00 88 1012.0
20260903000702 79 45 1.0 1.0 0.00 0.00 0.00 86 1011.9
20260903000156 79 101 0.0 0.0 0.00 0.00 0.00 85 1011.8
20260902235655 79 89 0.0 0.0 0.00 0.00 0.00 85 1012.1
20260902235150 79 105 0.0 1.0 0.00 0.00 0.00 84 1012.1
20260902234650 79 86 0.0 0.0 0.00 0.00 0.00 84 1012.1
20260902234149 80 72 0.0 0.0 0.00 0.00 0.00 83 1012.0
20260902233644 80 79 0.0 1.0 0.00 0.00 0.00 82 1012.1
20260902233143 80 51 0.0 1.0 0.00 0.00 0.00 82 1012.1
20260902232642 80 78 1.0 2.0 0.00 0.00 0.00 82 1012.3
20260902232142 80 74 1.0 1.0 0.00 0.00 0.00 83 1012.2
20260902231641 80 53 1.0 1.0 0.00 0.00 0.00 83 1012.1
20260902231137 80 38 1.0 1.0 0.00 0.00 0.00 82 1012.4
20260902230632 81 98 1.0 1.0 0.00 0.00 0.00 80 1012.2
20260902230130 81 83 0.0 0.0 0.00 0.00 0.00 78 1012.1
20260902225626 82 49 1.0 2.0 0.00 0.00 0.00 77 1011.8
20260902225125 82 78 1.0 1.0 0.00 0.00 0.00 77 1011.8
20260902224624 82 103 1.0 1.0 0.00 0.00 0.00 77 1011.9
20260902224120 82 84 0.0 2.0 0.00 0.00 0.00 76 1011.9
20260902223616 82 33 2.0 3.0 0.00 0.00 0.00 75 1011.8
20260902223115 82 83 1.0 2.0 0.00 0.00 0.00 75 1011.6
20260902222614 83 92 1.0 1.0 0.00 0.00 0.00 75 1011.8
20260902222113 83 120 3.0 3.0 0.00 0.00 0.00 74 1011.8
20260902221608 84 34 1.0 2.0 0.00 0.00 0.00 72 1011.7
20260902221102 84 96 1.0 1.0 0.00 0.00 0.00 71 1011.7
20260902220558 85 100 1.0 2.0 0.00 0.00 0.00 70 1011.8
20260902220052 85 46 2.0 2.0 0.00 0.00 0.00 70 1011.7
20260902215548 85 23 2.0 2.0 0.00 0.00 0.00 71 1012.0
20260902215044 85 105 0.0 0.0 0.00 0.00 0.00 70 1012.0
20260902214538 85 99 0.0 0.0 0.00 0.00 0.00 70 1011.9
20260902214037 85 110 0.0 1.0 0.00 0.00 0.00 70 1012.2
20260902213533 84 106 0.0 1.0 0.00 0.00 0.00 71 1012.1
20260902213032 84 103 0.0 1.0 0.00 0.00 0.00 72 1011.7
20260902212528 84 121 1.0 2.0 0.00 0.00 0.00 72 1011.9
20260902212024 85 80 0.0 1.0 0.00 0.00 0.00 71 1012.1
20260902211520 85 115 1.0 1.0 0.00 0.00 0.00 70 1012.2
20260902211015 85 86 0.0 0.0 0.00 0.00 0.00 70 1012.1
20260902210515 86 129 0.0 1.0 0.00 0.00 0.00 70 1012.2
20260902210014 85 122 1.0 2.0 0.00 0.00 0.00 70 1012.2
20260902205508 84 105 1.0 1.0 0.00 0.00 0.00 72 1012.3
20260902205004 84 112 0.0 1.0 0.00 0.00 0.00 73 1012.5
20260902204503 84 74 1.0 2.0 0.00 0.00 0.00 72 1012.3
20260902203959 84 104 0.0 0.0 0.00 0.00 0.00 72 1012.5
20260902203454 84 85 0.0 0.0 0.00 0.00 0.00 72 1012.6
20260902202952 84 112 0.0 1.0 0.00 0.00 0.00 72 1012.5
20260902202449 84 97 1.0 2.0 0.00 0.00 0.00 72 1012.5
20260902201946 84 92 1.0 1.0 0.00 0.00 0.00 72 1012.6
20260902201441 85 57 1.0 2.0 0.00 0.00 0.00 70 1012.5
20260902200940 86 94 1.0 1.0 0.00 0.00 0.00 69 1012.6
20260902200435 86 53 0.0 1.0 0.00 0.00 0.00 69 1012.3
20260902195931 86 84 0.0 1.0 0.00 0.00 0.00 68 1012.4
20260902195426 86 93 1.0 2.0 0.00 0.00 0.00 69 1012.6
20260902194925 85 70 0.0 0.0 0.00 0.00 0.00 70 1012.4
20260902194420 85 64 0.0 0.0 0.00 0.00 0.00 71 1012.6
20260902193915 85 107 1.0 2.0 0.00 0.00 0.00 71 1012.5
20260902193411 85 78 1.0 1.0 0.00 0.00 0.00 71 1012.5
20260902192909 85 27 1.0 1.0 0.00 0.00 0.00 71 1012.5
20260902192409 85 98 0.0 1.0 0.00 0.00 0.00 72 1012.8
20260902191902 85 55 1.0 1.0 0.00 0.00 0.00 72 1012.6
20260902191358 85 89 0.0 1.0 0.00 0.00 0.00 72 1013.1
20260902190853 85 71 0.0 1.0 0.00 0.00 0.00 72 1013.1
20260902190353 85 94 0.0 0.0 0.00 0.00 0.00 73 1013.0
20260902185843 84 119 1.0 1.0 0.00 0.00 0.00 73 1012.9
20260902185338 85 43 1.0 1.0 0.00 0.00 0.00 73 1013.0
20260902184834 84 116 1.0 1.0 0.00 0.00 0.00 74 1013.1
20260902184330 84 68 0.0 1.0 0.00 0.00 0.00 75 1013.1
20260902183825 83 100 0.0 1.0 0.00 0.00 0.00 76 1013.2
20260902183321 83 55 0.0 0.0 0.00 0.00 0.00 76 1013.5
20260902182817 83 90 0.0 0.0 0.00 0.00 0.00 76 1013.7
20260902182313 83 135 1.0 2.0 0.00 0.00 0.00 77 1013.8
20260902181809 82 97 0.0 1.0 0.00 0.00 0.00 78 1013.9
20260902181304 82 110 1.0 2.0 0.00 0.00 0.00 78 1013.8
20260902180758 82 85 0.0 0.0 0.00 0.00 0.00 78 1014.0
20260902180254 82 94 1.0 1.0 0.00 0.00 0.00 77 1014.0
20260902175749 82 104 0.0 1.0 0.00 0.00 0.00 77 1014.3
20260902175245 82 77 1.0 2.0 0.00 0.00 0.00 78 1014.2
20260902174740 83 90 1.0 1.0 0.00 0.00 0.00 77 1014.1
20260902174236 83 65 1.0 2.0 0.00 0.00 0.00 76 1014.2
20260902173731 84 98 0.0 1.0 0.00 0.00 0.00 74 1014.3
20260902173225 84 99 0.0 1.0 0.00 0.00 0.00 74 1014.3
20260902172720 85 40 1.0 2.0 0.00 0.00 0.00 74 1014.0
20260902172220 84 89 0.0 0.0 0.00 0.00 0.00 74 1014.1
20260902171715 84 73 0.0 0.0 0.00 0.00 0.00 73 1014.1
20260902171210 84 51 1.0 2.0 0.00 0.00 0.00 75 1014.3
20260902170706 84 108 1.0 1.0 0.00 0.00 0.00 75 1014.3
20260902170202 84 100 1.0 1.0 0.00 0.00 0.00 74 1014.3
20260902165656 84 72 0.0 0.0 0.00 0.00 0.00 73 1014.2
20260902165150 85 61 0.0 1.0 0.00 0.00 0.00 72 1014.4
20260902164646 85 115 1.0 1.0 0.00 0.00 0.00 72 1014.4
20260902164144 85 100 0.0 1.0 0.00 0.00 0.00 72 1014.4
20260902163640 85 34 1.0 1.0 0.00 0.00 0.00 72 1014.3
20260902163139 85 63 0.0 1.0 0.00 0.00 0.00 73 1014.8
20260902162638 84 54 1.0 1.0 0.00 0.00 0.00 75 1014.9
20260902162133 84 95 0.0 0.0 0.00 0.00 0.00 76 1014.7
20260902161628 84 83 0.0 1.0 0.00 0.00 0.00 75 1014.7
20260902161124 84 102 0.0 0.0 0.00 0.00 0.00 77 1014.6
20260902160620 83 84 1.0 2.0 0.00 0.00 0.00 79 1015.0
20260902160114 83 38 0.0 1.0 0.00 0.00 0.00 81 1014.8
20260902155608 82 51 1.0 1.0 0.00 0.00 0.00 83 1014.9
20260902155106 82 99 0.0 0.0 0.00 0.00 0.00 85 1014.7
20260902154602 82 103 0.0 0.0 0.00 0.00 0.00 86 1015.0
20260902154056 81 100 0.0 0.0 0.00 0.00 0.00 87 1014.8
20260902153555 81 85 0.0 1.0 0.00 0.00 0.00 89 1014.8
20260902153051 80 103 0.0 0.0 0.00 0.00 0.00 90 1014.7
20260902152547 80 107 0.0 0.0 0.00 0.00 0.00 89 1014.8
20260902152042 81 110 0.0 0.0 0.00 0.00 0.00 89 1014.6
20260902151538 81 102 0.0 0.0 0.00 0.00 0.00 89 1014.7
20260902151037 81 101 0.0 0.0 0.00 0.00 0.00 88 1014.6
20260902150533 80 102 0.0 1.0 0.00 0.00 0.00 89 1014.3
20260902150028 80 110 0.0 0.0 0.00 0.00 0.00 89 1014.4
20260902145522 80 129 0.0 0.0 0.00 0.00 0.00 89 1014.4
20260902145017 80 100 0.0 0.0 0.00 0.00 0.00 88 1014.9
20260902144514 80 104 0.0 0.0 0.00 0.00 0.00 88 1014.6
20260902144014 80 94 0.0 0.0 0.00 0.00 0.00 88 1014.7
20260902143509 79 96 0.0 1.0 0.00 0.00 0.00 88 1014.5
20260902143004 79 98 0.0 0.0 0.00 0.00 0.00 89 1014.5
20260902142500 79 92 0.0 1.0 0.00 0.00 0.00 90 1014.9
20260902141955 79 102 0.0 0.0 0.00 0.00 0.00 90 1014.7
20260902141450 79 103 0.0 0.0 0.00 0.00 0.00 89 1014.5
20260902140950 79 108 0.0 0.0 0.00 0.00 0.00 89 1014.8
20260902140445 79 77 0.0 0.0 0.00 0.00 0.00 89 1014.9
20260902135945 79 61 0.0 0.0 0.00 0.00 0.00 89 1014.9
20260902135440 79 96 0.0 0.0 0.00 0.00 0.00 90 1014.7
20260902134939 79 83 0.0 0.0 0.00 0.00 0.00 90 1014.8
20260902134436 79 90 0.0 0.0 0.00 0.00 0.00 90 1014.5
20260902133930 79 96 0.0 0.0 0.00 0.00 0.00 90 1014.7
20260902133425 78 98 0.0 0.0 0.00 0.00 0.00 91 1014.6
20260902132920 78 95 0.0 0.0 0.00 0.00 0.00 92 1014.4
20260902132415 78 96 0.0 0.0 0.00 0.00 0.00 92 1014.6
20260902131910 77 98 0.0 0.0 0.00 0.00 0.00 92 1014.7
20260902131407 77 97 0.0 0.0 0.00 0.00 0.00 92 1014.8
20260902130906 77 93 0.0 1.0 0.00 0.00 0.00 92 1014.8
20260902130402 77 81 0.0 0.0 0.00 0.00 0.00 92 1014.7
20260902125857 77 95 0.0 1.0 0.00 0.00 0.00 93 1014.7
20260902125353 76 85 0.0 0.0 0.00 0.00 0.00 93 1014.6
20260902124849 76 101 0.0 0.0 0.00 0.00 0.00 93 1014.6
20260902124344 76 96 0.0 0.0 0.00 0.00 0.00 93 1014.6
20260902123839 76 94 0.0 0.0 0.00 0.00 0.00 94 1014.8
20260902123336 76 91 0.0 0.0 0.00 0.00 0.00 94 1014.8
20260902122834 76 102 0.0 0.0 0.00 0.00 0.00 94 1014.6
20260902122331 75 102 0.0 0.0 0.00 0.00 0.00 94 1014.6
20260902121830 75 102 0.0 0.0 0.00 0.00 0.00 94 1014.7
20260902121325 75 96 0.0 0.0 0.00 0.00 0.00 94 1014.4
20260902120820 75 75 0.0 1.0 0.00 0.00 0.00 94 1014.4
20260902120317 75 96 0.0 0.0 0.00 0.00 0.00 93 1014.6
20260902115811 75 93 0.0 0.0 0.00 0.00 0.00 93 1014.4
20260902115309 75 93 0.0 0.0 0.00 0.00 0.00 93 1014.7
20260902114804 75 95 0.0 0.0 0.00 0.00 0.00 93 1014.5
20260902114300 75 95 0.0 0.0 0.00 0.00 0.00 93 1014.2
20260902113759 76 94 0.0 0.0 0.00 0.00 0.00 93 1014.5
20260902113255 76 96 0.0 0.0 0.00 0.00 0.00 93 1014.3
20260902112754 76 73 0.0 0.0 0.00 0.00 0.00 93 1014.5
20260902112251 76 97 0.0 1.0 0.00 0.00 0.00 92 1014.5
20260902111746 76 96 0.0 0.0 0.00 0.00 0.00 92 1014.4
20260902111243 76 96 0.0 0.0 0.00 0.00 0.00 92 1014.3
20260902110738 76 94 0.0 0.0 0.00 0.00 0.00 92 1014.2
20260902110234 76 95 0.0 0.0 0.00 0.00 0.00 92 1014.2
20260902105733 76 95 0.0 0.0 0.00 0.00 0.00 91 1014.2
20260902105229 76 100 0.0 0.0 0.00 0.00 0.00 91 1014.1
20260902104724 76 100 0.0 0.0 0.00 0.00 0.00 91 1014.3
20260902104221 76 97 0.0 0.0 0.00 0.00 0.00 91 1014.3
20260902103720 76 99 0.0 0.0 0.00 0.00 0.00 90 1014.3
20260902103219 76 102 0.0 0.0 0.00 0.00 0.00 90 1014.4
20260902102715 76 100 0.0 0.0 0.00 0.00 0.00 90 1014.3
20260902102213 76 94 0.0 1.0 0.00 0.00 0.00 90 1014.3
20260902101708 76 96 0.0 0.0 0.00 0.00 0.00 89 1014.3
20260902101203 76 86 0.0 0.0 0.00 0.00 0.00 89 1014.2
20260902100702 76 95 0.0 0.0 0.00 0.00 0.00 89 1014.4
20260902100157 76 95 0.0 0.0 0.00 0.00 0.00 89 1014.1
20260902095655 76 101 0.0 0.0 0.00 0.00 0.00 89 1014.5
20260902095150 76 96 0.0 0.0 0.00 0.00 0.00 89 1014.5
20260902094645 76 103 0.0 0.0 0.00 0.00 0.00 89 1014.3
20260902094141 76 103 0.0 0.0 0.00 0.00 0.00 89 1014.6
20260902093641 76 106 0.0 0.0 0.00 0.00 0.00 89 1014.1
20260902093136 76 102 0.0 0.0 0.00 0.00 0.00 89 1014.3
20260902092630 76 100 0.0 0.0 0.00 0.00 0.00 89 1014.2
20260902092126 77 103 0.0 0.0 0.00 0.00 0.00 88 1014.1
20260902091625 77 101 0.0 0.0 0.00 0.00 0.00 88 1014.2
20260902091122 77 102 0.0 0.0 0.00 0.00 0.00 87 1014.2
20260902090618 77 101 0.0 0.0 0.00 0.00 0.00 87 1014.4
20260902090117 77 101 0.0 0.0 0.00 0.00 0.00 87 1014.2
20260902085612 77 101 0.0 0.0 0.00 0.00 0.00 87 1014.4
20260902085107 77 101 0.0 0.0 0.00 0.00 0.00 87 1014.2
20260902084603 77 101 0.0 0.0 0.00 0.00 0.00 86 1014.4
20260902084059 77 79 0.0 0.0 0.00 0.00 0.00 86 1014.3
20260902083554 77 97 0.0 0.0 0.00 0.00 0.00 85 1014.4
20260902083054 77 98 0.0 0.0 0.00 0.00 0.00 85 1014.4
20260902082549 77 98 0.0 0.0 0.00 0.00 0.00 85 1014.6
20260902082046 77 98 0.0 0.0 0.00 0.00 0.00 85 1014.3
20260902081542 77 98 0.0 0.0 0.00 0.00 0.00 84 1014.2
20260902081042 78 96 0.0 0.0 0.00 0.00 0.00 84 1014.3
20260902080537 78 95 0.0 0.0 0.00 0.00 0.00 84 1014.3
20260902080033 78 96 0.0 0.0 0.00 0.00 0.00 84 1014.5
20260902075533 78 96 0.0 0.0 0.00 0.00 0.00 83 1014.4
20260902075029 78 96 0.0 0.0 0.00 0.00 0.00 83 1014.4
20260902074524 78 94 0.0 0.0 0.00 0.00 0.00 83 1014.2
20260902074019 78 95 0.0 0.0 0.00 0.00 0.00 83 1014.4
20260902073515 78 95 0.0 0.0 0.00 0.00 0.00 83 1014.7
20260902073012 78 95 0.0 0.0 0.00 0.00 0.00 82 1014.5
20260902072506 78 96 0.0 0.0 0.00 0.00 0.00 82 1014.5
20260902072004 78 99 0.0 0.0 0.00 0.00 0.00 82 1014.5
20260902071502 78 99 0.0 0.0 0.00 0.00 0.00 82 1015.0
20260902070959 78 97 0.0 0.0 0.00 0.00 0.00 81 1014.8
20260902070454 78 97 0.0 0.0 0.00 0.00 0.00 81 1014.8
20260902065953 78 97 0.0 0.0 0.00 0.00 0.00 82 1014.7
20260902065448 78 97 0.0 0.0 0.00 0.00 0.00 81 1014.7
20260902064943 78 96 0.0 0.0 0.00 0.00 0.00 81 1014.7
20260902064439 78 96 0.0 0.0 0.00 0.00 0.00 81 1014.6
20260902063935 78 99 0.0 0.0 0.00 0.00 0.00 81 1014.6
20260902063434 78 98 0.0 0.0 0.00 0.00 0.00 81 1014.6
20260902062929 78 96 0.0 0.0 0.00 0.00 0.00 80 1014.5
20260902062428 78 97 0.0 0.0 0.00 0.00 0.00 80 1015.0
20260902061923 78 95 0.0 0.0 0.00 0.00 0.00 80 1014.6
20260902061418 78 99 0.0 0.0 0.00 0.00 0.00 80 1014.6
20260902060915 78 99 0.0 0.0 0.00 0.00 0.00 79 1014.6
20260902060410 78 98 0.0 0.0 0.00 0.00 0.00 79 1014.8
20260902055906 79 98 0.0 0.0 0.00 0.00 0.00 79 1014.8
20260902055402 79 97 0.0 0.0 0.00 0.00 0.00 78 1014.8
20260902054857 79 92 0.0 0.0 0.00 0.00 0.00 78 1014.7
20260902054352 79 101 0.0 0.0 0.00 0.00 0.00 78 1014.4
20260902053848 79 99 0.0 0.0 0.00 0.00 0.00 78 1014.6
20260902053342 79 97 0.0 0.0 0.00 0.00 0.00 77 1014.6
20260902052842 80 100 0.0 0.0 0.00 0.00 0.00 77 1014.8
20260902052337 80 99 0.0 0.0 0.00 0.00 0.00 76 1014.8
20260902051831 80 98 0.0 0.0 0.00 0.00 0.00 76 1014.6
20260902051326 80 99 0.0 0.0 0.00 0.00 0.00 76 1014.6
20260902050825 80 99 0.0 0.0 0.00 0.00 0.00 75 1014.8
20260902050320 80 98 0.0 0.0 0.00 0.00 0.00 75 1014.6
20260902045815 81 98 0.0 0.0 0.00 0.00 0.00 75 1014.6
20260902045311 81 99 0.0 0.0 0.00 0.00 0.00 73 1014.6
20260902044807 81 98 0.0 0.0 0.00 0.00 0.00 74 1014.7
20260902044302 81 98 0.0 0.0 0.00 0.00 0.00 73 1014.5
20260902043756 81 98 0.0 0.0 0.00 0.00 0.00 73 1014.7
20260902043252 82 99 0.0 0.0 0.00 0.00 0.00 73 1014.5
20260902042751 81 99 0.0 0.0 0.00 0.00 0.00 74 1014.7
20260902042247 82 96 0.0 0.0 0.00 0.00 0.00 73 1014.4
20260902041742 81 96 0.0 0.0 0.00 0.00 0.00 74 1014.9
20260902041242 81 94 0.0 0.0 0.00 0.00 0.00 74 1014.7
20260902040741 82 102 0.0 0.0 0.00 0.00 0.00 75 1014.7
20260902040237 82 101 0.0 0.0 0.00 0.00 0.00 74 1014.7
20260902035735 82 101 0.0 0.0 0.00 0.00 0.00 74 1014.9
20260902035231 82 101 0.0 0.0 0.00 0.00 0.00 73 1014.9
20260902034729 82 99 0.0 0.0 0.00 0.00 0.00 74 1014.8
20260902034225 82 100 0.0 0.0 0.00 0.00 0.00 76 1014.6
20260902033723 81 99 0.0 0.0 0.00 0.00 0.00 74 1014.6
20260902033218 81 99 0.0 0.0 0.00 0.00 0.00 77 1014.6
20260902032716 81 95 0.0 0.0 0.00 0.00 0.00 77 1014.8
20260902032212 82 101 0.0 0.0 0.00 0.00 0.00 76 1014.6
20260902031712 82 101 0.0 0.0 0.00 0.00 0.00 76 1014.6
20260902031207 82 98 0.0 0.0 0.00 0.00 0.00 75 1014.6
20260902030703 82 101 0.0 0.0 0.00 0.00 0.00 74 1014.5
20260902030202 83 103 0.0 0.0 0.00 0.00 0.00 74 1014.5
20260902025702 83 98 0.0 0.0 0.00 0.00 0.00 72 1014.3
20260902025157 83 103 0.0 0.0 0.00 0.00 0.00 72 1014.2
20260902024652 84 102 0.0 0.0 0.00 0.00 0.00 71 1014.2
20260902024147 84 102 0.0 0.0 0.00 0.00 0.00 71 1014.3
20260902023643 84 99 0.0 0.0 0.00 0.00 0.00 71 1013.9
20260902023138 84 104 0.0 0.0 0.00 0.00 0.00 69 1014.0
20260902022637 84 103 0.0 0.0 0.00 0.00 0.00 69 1014.0
20260902022133 85 103 0.0 0.0 0.00 0.00 0.00 69 1013.8
20260902021628 85 103 0.0 0.0 0.00 0.00 0.00 68 1013.9
20260902021123 85 103 0.0 0.0 0.00 0.00 0.00 69 1013.6
20260902020619 85 102 0.0 0.0 0.00 0.00 0.00 68 1013.7
20260902020114 86 101 0.0 0.0 0.00 0.00 0.00 68 1013.6
20260902015610 86 102 0.0 0.0 0.00 0.00 0.00 68 1013.6
20260902015106 86 102 0.0 0.0 0.00 0.00 0.00 67 1013.5
20260902014602 86 102 0.0 0.0 0.00 0.00 0.00 66 1013.7
20260902014057 86 102 0.0 0.0 0.00 0.00 0.00 66 1013.4
20260902013556 87 103 0.0 0.0 0.00 0.00 0.00 65 1013.3
20260902013052 87 102 0.0 0.0 0.00 0.00 0.00 65 1013.2
20260902012547 87 103 0.0 0.0 0.00 0.00 0.00 65 1013.3
20260902012042 87 107 0.0 0.0 0.00 0.00 0.00 65 1013.3
20260902011538 87 102 0.0 0.0 0.00 0.00 0.00 65 1013.4
20260902011037 88 96 0.0 0.0 0.00 0.00 0.00 65 1013.3
20260902010537 88 115 0.0 0.0 0.00 0.00 0.00 64 1013.4
20260902010033 88 74 0.0 1.0 0.00 0.00 0.00 63 1013.3
20260902005531 88 99 0.0 0.0 0.00 0.00 0.00 63 1013.4
20260902005027 88 102 0.0 0.0 0.00 0.00 0.00 63 1013.2
20260902004526 88 109 0.0 0.0 0.00 0.00 0.00 62 1013.3
20260902004022 88 116 0.0 0.0 0.00 0.00 0.00 62 1013.2
20260902003517 89 116 0.0 0.0 0.00 0.00 0.00 62 1013.3
20260902003012 89 104 0.0 0.0 0.00 0.00 0.00 62 1013.2
20260902002508 89 125 0.0 0.0 0.00 0.00 0.00 61 1012.8
20260902002003 89 115 0.0 0.0 0.00 0.00 0.00 61 1013.0
20260902001456 89 122 1.0 1.0 0.00 0.00 0.00 61 1012.8